www.pogodaiklimat.ru

Погода и климат >> Архив погоды >> Иран >> Nehbandan


ПОГОДА в Nehbandan

  • Прогноз погоды в Nehbandan
  • Монитор погоды в Nehbandan
  • Климат города

АРХИВ ПОГОДЫ в Nehbandan

Время (UTC), дата Ветер
(напр.,м/с)
 
Видим.   Явления Облачность Т
(С)
Тd
(С)
f
(%)
Тe
(С)
Тes
(С)
Комфортность P
(гПа)
Po
(гПа)
Тmin
(С)
Tmax
(С)
R
(мм)
R24
(мм)
S
(см)
03 14.05 В 4 8000 м пыль 3/0
[Ac trans]
+17.8 +8.9 56 +18 +19 1007.7 879.2 +15.7
06 14.05 ЮВ 5 7000 м пыльный позёмок ясно +23.4 +7.1 35 +24 +33 комфорт 1006.6 878.8
09 14.05 ЮВ 6 7000 м пыльный позёмок 4/0
[Ci fib]
+27.8 +5.1 23 +27 +34 жарко 1003.3 876.6
12 14.05 ЮВ 5 6000 м пыльный позёмок 4/0
[Ac trans Ci fib]
+28.6 +5.8 24 +27 +31 жарко 1000.4 874.3
15 14.05 В 3 6000 м пыльный позёмок 4/0
[Ac trans]
+26.9 +5.0 25 +26 +26 жарко 999.9 873.7 +29.0
18 14.05 С 4 8000 м пыль ясно +25.0 +5.7 29 +25 +25 комфорт 1000.5 875.0
21 14.05 Ю 4 10 км ясно +22.2 +6.1 35 +23 +23 комфорт 999.9 874.8
00 15.05 С 4 10 км ясно +18.8 +7.1 46 +19 +19 1002.1 876.2
03 15.05 ЮВ 4 8000 м пыль ясно +20.3 +7.7 44 +21 +24 комфорт 1004.3 878.1 +17.8
06 15.05 Ю 2 8000 м пыль ясно +27.1 +5.9 26 +26 +43 жарко 1003.7 878.5
09 15.05 ЮЗ 5 8000 м пыльный позёмок 4/4 1200 м
[Cu hum Ac trans]
+30.5 -10.7 6 +26 +33 жарко 1002.5 877.2
12 15.05 З 6 12 км 3/3 1200 м
[Cu hum]
+31.0 -15.3 4 +26 +29 жарко 1001.5 875.8
15 15.05 ЮЗ 6 12 км 5/1 1200 м
[Cu hum Ac trans]
+28.7 -11.8 6 +25 +25 комфорт 1001.9 876.0 +31.6
18 15.05 СВ 6 15 км ясно +23.0 -2.9 18 +23 +23 комфорт 1003.3 877.7
21 15.05 СВ 3 15 км ясно +21.3 +4.6 33 +22 +22 комфорт 1003.2 877.4
00 16.05 СВ 2 15 км ясно +20.3 +3.8 34 +21 +21 комфорт 1003.0 877.7
03 16.05 штиль 0 15 км ясно +22.0 +4.6 32 +22 +27 комфорт 1004.2 878.6 +18.9
06 16.05 штиль 0 20 км ясно +27.3 +2.6 20 +26 +49 жарко 1004.8 879.0
09 16.05 СВ 3 18 км 4/4 1200 м
[Sc diur, vesp Ac trans]
+29.1 +1.1 16 +27 +37 жарко 1003.0 877.4
12 16.05 Ю 4 15 км 6/6 900 м
[Cb calv]
+30.8 -5.0 9 +27 +29 жарко 1001.3 876.0
15 16.05 СВ 3 15 км 1/1 1000 м
[Cu hum]
+25.2 +2.4 23 +24 +24 комфорт 1002.6 876.5 +31.3
18 16.05 штиль 0 15 км ясно +21.0 +4.4 34 +21 +21 комфорт 1003.8 877.8
21 16.05 С 4 15 км ясно +19.4 +4.9 38 +20 +20 1004.2 878.0
00 17.05 штиль 0 15 км ясно +17.6 +6.1 47 +18 +18 1004.7 878.7
03 17.05 ЮВ 3 20 км 1/0
[Ac trans]
+19.6 +6.5 42 +21 +23 комфорт 1006.3 879.4 +16.6
06 17.05 ЮВ 4 20 км 1/1 1200 м
[Cu hum]
+25.1 +1.5 21 +24 +34 комфорт 1007.2 880.3
09 17.05 ЮЗ 5 20 км 6/6 1200 м
[Sc diur, vesp]
+28.2 +1.3 18 +26 +30 жарко 1005.4 879.0
12 17.05 СВ 5 20 км 8/6 1200 м
[Sc diur, vesp Ac trans]
+21.9 +5.3 34 +22 +23 комфорт 1006.6 878.5
15 17.05 СВ 4 20 км в посл. час ливневой дождь {гроза} 6/1 900 м
[Cb calv Ac As]
+17.4 +10.7 65 +17 +17 1009.2 880.5 +28.6
18 17.05 С 10 15 км {гроза, ливн. осадки} ясно +16.6 +7.4 55 +15 +15 1009.8 881.8 5
21 17.05 С 4 15 км ясно +15.3 +5.9 53 +14 +14 1010.1 881.4
00 18.05 СЗ 4 15 км ясно +12.7 +6.4 65 +11 +11 1010.8 881.2
03 18.05 З 4 20 км ясно +16.6 +3.6 42 +16 +18 1012.6 882.6 +12.0
06 18.05 С 5 20 км 1/1 1200 м
[Cu hum]
+21.4 +1.0 26 +21 +29 комфорт 1011.9 882.7
09 18.05 ЮВ 2 20 км 4/4 1200 м
[Cu hum]
+24.2 -0.1 20 +23 +35 комфорт 1009.8 881.2
12 18.05 СЗ 3 20 км 4/4 1200 м
[Cu hum Ac trans]
+26.1 -2.5 15 +24 +28 комфорт 1008.4 879.8
15 18.05 СВ 3 20 км 5/3 1200 м
[Cu hum Ac As]
+22.7 -2.6 18 +21 +21 комфорт 1009.6 880.9 +26.7
18 18.05 С 3 15 км 1/0
[Ac trans]
+19.4 -3.4 21 +20 +20 1011.2 882.6
21 18.05 С 5 15 км ясно +17.8 -4.0 22 +17 +17 1010.7 882.3
00 19.05 С 3 15 км ясно +16.4 -3.7 25 +16 +16 1010.4 882.2
03 19.05 С 3 20 км ясно +18.5 -2.6 24 +19 +21 1012.6 883.9 +15.5
06 19.05 СЗ 3 20 км ясно +21.6 -4.0 18 +21 +35 комфорт 1013.2 884.4
09 19.05 СВ 3 20 км 1/0
[Ac trans]
+24.6 -5.7 13 +22 +38 комфорт 1011.2 882.9
12 19.05 С 4 20 км 1/1 1200 м
[Cu hum]
+26.6 -9.7 8 +23 +28 комфорт 1009.4 881.4
15 19.05 С 3 20 км ясно +24.3 -9.5 10 +22 +22 комфорт 1009.6 881.5 +27.2
18 19.05 СВ 3 15 км ясно +20.3 -6.4 16 +20 +20 1012.1 883.6
21 19.05 СЗ 5 15 км ясно +18.7 -11.9 11 +18 +18 1012.0 883.1
00 20.05 СЗ 3 15 км ясно +16.7 -12.5 12 +17 +17 1011.8 883.5
03 20.05 штиль 0 20 км ясно +18.2 -10.3 13 +18 +23 1013.9 885.2 +13.6
06 20.05 С 5 20 км ясно +23.3 -12.9 8 +20 +29 1013.2 884.8
09 20.05 СЗ 5 20 км 1/1 1000 м
[Cu hum]
+25.9 -15.6 5 +22 +32 комфорт 1011.5 883.5
12 20.05 СЗ 4 20 км 4/4 1200 м
[Cu hum]
+27.6 -19.9 3 +23 +26 комфорт 1009.5 881.6
15 20.05 В 5 20 км 4/1 1200 м
[Cu hum Ac trans]
+24.4 -10.6 9 +22 +22 комфорт 1010.4 882.2 +28.1
18 20.05 СВ 4 15 км ясно +19.9 -9.8 13 +19 +19 1012.1 883.8
21 20.05 СВ 3 15 км ясно +16.6 -9.0 16 +17 +17 883.3
00 21.05 СВ 4 15 км ясно +14.3 -9.0 19 +13 +13 1011.8 883.3

 

Местоположение метеостанции Nehbandan (Иран): широта 31.53 долгота 60.03 высота над уровнем моря 1211 м.

В архиве по умолчанию представлена погода в Nehbandan за последнюю неделю. Архивные данные за месяц целиком и за предыдущие месяцы, начиная с января 2011 года, Вы можете получить, выбрав интересующий диапазон дат из раскрывающегося списка и нажав кнопку "Ввод!".


*Определитесь, кто Вы:
робот инопланетянин человек

Внимание! Время в таблицах - всемирное. Для получения местного времени необходимо прибавить поправку, которая в Nehbandan равна 3.5 ч.

Смотрите также архив погоды в соседних городах и на ближайших метеорологических станциях:

Погода в Zabol (Иран) (148 км)
Погода в Birjand (Иран) (168 км)
Погода в Zahedan (Иран) (243 км)
Погода в Bam (Иран) (312 км)
Погода в Kerman (Иран) (325 км)
Погода в Ferdous (Иран) (327 км)
Погода в Herat (Афганистан) (362 км)
Погода в Tabas (Иран) (371 км)
Погода в Nokkundi (Пакистан) (399 км)
Погода в Lashkargah (Афганистан) (411 км)

Пояснения к столбцам:

Ветер - указаны скорость ветра в м/с - средняя за 10 мин, порывы в срок и между сроками (в фигурных скобках) и направление, откуда дует ветер: С - северный, СВ - северо-восточный, В - восточный, ЮВ - юго-восточный, Ю - южный, ЮЗ - юго-западный, З - западный, СЗ - северо-западный.
Видимость - горизонтальная дальность видимости в метрах или километрах. При видимости от 1 до 10 км при отсутствии осадков обычно наблюдается дымка, при ухудшении видимости до 1 км и менее - туман. В сухую погоду видимость может ухудшаться дымом, пылью или мглою.
Явления - указаны атмосферные явления, наблюдавшиеся в срок или в последний час перед сроком; фигурными скобками обозначены явления, наблюдавшиеся между сроками (за 1-3 часа до срока); квадратными скобками обозначены град или гололедные отложения с указанием их диаметра в мм.
Облачность - указаны через наклонную черту общая и нижняя облачность в баллах и высота нижней границы облаков в метрах; квадратными скобками обозначены формы облаков: Ci - перистые, Cs - перисто-слоистые, Cc - перисто-кучевые, Ac - высококучевые, As - высокослоистые, Sc - слоисто-кучевые, Ns - слоисто-дождевые, Cu - кучевые, Cb - кучево-дождевые. Подробнее классификацию облаков см. в Атласе облаков (PDF).
T - Температура воздуха - температура, измеренная на высоте 2 м над землей.
Td - Температура точки росы - температура, при понижении до которой содержащийся в воздухе водяной пар достигнет насыщения.
f - Относительная влажность воздуха - влажноcть воздуха, измеренная на высоте 2 м над землей.
Te - Эффективная температура - температура, которую ощущает одетый по сезону человек в тени. Характеристика душности погоды. При расчете учитывается влияние влажности воздуха и скорости ветра на теплоощущения человека.
Tes - Эффективная температура на солнце - температура, которую ощущает человек, с поправкой на солнечный нагрев. Характеристика знойности погоды. Зависит от высоты солнца над горизонтом, облачности и скорости ветра. Ночью, в пасмурную погоду, а также при ветре 12 м/с и более поправка равна нулю.
P - Атмосферное давление - приведенное к уровню моря атмосферное давление.
Po - Атмосферное давление - измеренное на уровне метеостанции атмосферное давление.
Tmin - Минимальная температура - минимум температуры воздуха на высоте 2 м над землей.
Tmax - Максимальная температура - максимум температуры воздуха на высоте 2 м над землей.
R - Количество осадков - Количество выпавших осадков за период времени, мм. При наведении курсора мыши на число - период времени, за который выпало указанное количество осадков.
R24 - Количество осадков - Количество выпавших осадков за 24 часа, мм.
S - Снежный покров - Высота снежного покрова, см. При наведении курсора мыши на число - состояние снежного покрова и степень покрытия местности в баллах.